Torna al catalogo

ATLAS AGENA R/B

AttivoMEO
NORAD 6318·ROCKET BODY·🇺🇸 United States

Lanciato Dec 20, 1972 da Cape Canaveral Space Force Station

Loading…

Prossimi Passaggi (prossime 24 ore)

TLE

AggiornatoSource: Space-Track

Epoca: Sep 13, 2026, 22:59 UTC

1 06318U 72101B   26256.95784790 -.00000211  00000-0  00000-0 0  9994
2 06318   8.4675 219.4621 1256804 192.4988 163.9292  1.02316640 28232

Traccia ATLAS AGENA R/B in tempo reale con AllMySat

Download on the App Store